DAL504 KATL-KMSY

Flight info

Callsign DAL504
Flight time 1h 13m
Altitude 32000
Route POUNC2 GRGIA SJI MNSTR1
Aircraft B738/M-SDE2E3FGHIRWXY/LB1

Departure

Time 2026-05-01 08:10
Airport Hartsfield Jackson Atlanta International Airport (KATL)

Arrival

Time 2026-05-01 09:24
Airport Louis Armstrong New Orleans International Airport (KMSY)
Time Latitude Longitude Altitude Speed Heading
2026-05-01 07:52 33.64298 -84.43533 1012 ft 0 kts 270°
2026-05-01 08:00 33.64299 -84.43481 1011 ft 2 kts 269°
2026-05-01 08:01 33.64277 -84.43458 1011 ft 1 kts
2026-05-01 08:01 33.64275 -84.43458 1011 ft 0 kts 360°
2026-05-01 08:03 33.64277 -84.43458 1011 ft 2 kts 360°
2026-05-01 08:04 33.64416 -84.43456 1011 ft 11 kts 17°
2026-05-01 08:04 33.64461 -84.43188 1006 ft 20 kts 91°
2026-05-01 08:05 33.64463 -84.42840 1002 ft 21 kts 89°
2026-05-01 08:05 33.64468 -84.42660 999 ft 22 kts 89°
2026-05-01 08:05 33.64469 -84.42464 991 ft 24 kts 90°
2026-05-01 08:06 33.64513 -84.42163 979 ft 18 kts 62°
2026-05-01 08:06 33.64543 -84.41833 970 ft 21 kts 90°
2026-05-01 08:07 33.64543 -84.41457 972 ft 24 kts 90°
2026-05-01 08:07 33.64543 -84.41085 976 ft 21 kts 90°
2026-05-01 08:08 33.64543 -84.40911 975 ft 21 kts 89°
2026-05-01 08:08 33.64571 -84.40633 974 ft 13 kts 90°
2026-05-01 08:09 33.64649 -84.40563 976 ft 7 kts 352°
2026-05-01 08:09 33.64680 -84.40604 978 ft 6 kts 275°
2026-05-01 08:09 33.64680 -84.40712 980 ft 36 kts 270°
2026-05-01 08:10 33.64685 -84.42544 1007 ft 171 kts 272°
2026-05-01 08:10 33.64726 -84.45567 2416 ft 190 kts 275°
2026-05-01 08:11 33.65230 -84.48807 3494 ft 210 kts 286°
2026-05-01 08:11 33.66008 -84.52583 4434 ft 248 kts 286°
2026-05-01 08:12 33.66791 -84.56712 5861 ft 263 kts 282°
2026-05-01 08:12 33.67144 -84.58826 6797 ft 261 kts 281°
2026-05-01 08:12 33.67849 -84.63113 8468 ft 265 kts 281°
2026-05-01 08:13 33.68209 -84.65268 9232 ft 268 kts 281°
2026-05-01 08:13 33.68575 -84.67436 10102 ft 267 kts 281°
2026-05-01 08:13 33.69339 -84.71952 11141 ft 290 kts 280°
2026-05-01 08:14 33.69604 -84.74384 11556 ft 304 kts 270°
2026-05-01 08:14 33.69237 -84.76948 11928 ft 321 kts 250°
2026-05-01 08:14 33.68082 -84.79293 12394 ft 335 kts 236°
2026-05-01 08:14 33.66665 -84.81525 12992 ft 342 kts 234°
2026-05-01 08:15 33.65208 -84.83791 13786 ft 343 kts 235°
2026-05-01 08:15 33.62320 -84.88361 15262 ft 346 kts 237°
2026-05-01 08:15 33.60904 -84.90633 16064 ft 344 kts 237°
2026-05-01 08:16 33.59473 -84.92939 16719 ft 347 kts 238°
2026-05-01 08:16 33.58038 -84.95255 17452 ft 346 kts 238°
2026-05-01 08:16 33.56623 -84.97535 18153 ft 345 kts 239°
2026-05-01 08:16 33.55193 -84.99837 18781 ft 346 kts 239°
2026-05-01 08:17 33.53749 -85.02165 19382 ft 348 kts 239°
2026-05-01 08:17 33.52305 -85.04487 19983 ft 349 kts 239°
2026-05-01 08:17 33.50871 -85.06789 20624 ft 349 kts 239°
2026-05-01 08:17 33.49415 -85.09126 21159 ft 351 kts 239°
2026-05-01 08:18 33.47946 -85.11482 21651 ft 354 kts 239°
2026-05-01 08:18 33.45007 -85.16189 22655 ft 357 kts 239°
2026-05-01 08:19 33.42293 -85.21156 23592 ft 356 kts 247°
2026-05-01 08:19 33.41293 -85.23878 23964 ft 358 kts 253°
2026-05-01 08:19 33.40493 -85.26672 24406 ft 359 kts 256°
2026-05-01 08:19 33.39775 -85.29539 24903 ft 360 kts 257°
2026-05-01 08:20 33.39087 -85.32420 25321 ft 362 kts 257°
2026-05-01 08:20 33.38397 -85.35319 25769 ft 364 kts 257°
2026-05-01 08:20 33.37696 -85.38245 26126 ft 368 kts 257°
2026-05-01 08:20 33.36992 -85.41150 26511 ft 370 kts 258°
2026-05-01 08:21 33.36269 -85.44109 26924 ft 372 kts 257°
2026-05-01 08:21 33.35537 -85.47079 27281 ft 375 kts 257°
2026-05-01 08:21 33.34795 -85.50071 27726 ft 375 kts 258°
2026-05-01 08:21 33.34051 -85.53059 28163 ft 375 kts 258°
2026-05-01 08:22 33.33304 -85.56050 28535 ft 377 kts 258°
2026-05-01 08:22 33.32560 -85.59038 28754 ft 382 kts 258°
2026-05-01 08:22 33.31796 -85.62104 29014 ft 386 kts 258°
2026-05-01 08:22 33.31029 -85.65173 29479 ft 385 kts 258°
2026-05-01 08:23 33.30271 -85.68205 29925 ft 385 kts 257°
2026-05-01 08:23 33.29504 -85.71266 30371 ft 385 kts 258°
2026-05-01 08:23 33.28742 -85.74297 30776 ft 385 kts 258°
2026-05-01 08:23 33.27970 -85.77363 31303 ft 382 kts 258°
2026-05-01 08:24 33.27214 -85.80351 31858 ft 378 kts 258°
2026-05-01 08:24 33.26458 -85.83339 31974 ft 377 kts 259°
2026-05-01 08:24 33.25699 -85.86333 31976 ft 371 kts 258°
2026-05-01 08:25 33.24226 -85.92184 31977 ft 370 kts 258°
2026-05-01 08:25 33.22746 -85.98058 31975 ft 370 kts 258°
2026-05-01 08:26 33.21259 -86.03934 31974 ft 373 kts 258°
2026-05-01 08:26 33.19764 -86.09815 31976 ft 372 kts 258°
2026-05-01 08:27 33.18274 -86.15662 31980 ft 370 kts 258°
2026-05-01 08:27 33.16771 -86.21549 31980 ft 372 kts 258°
2026-05-01 08:28 33.15271 -86.27406 31988 ft 369 kts 258°
2026-05-01 08:28 33.13781 -86.33227 31988 ft 369 kts 258°
2026-05-01 08:29 33.12279 -86.39092 31983 ft 372 kts 258°
2026-05-01 08:29 33.10755 -86.45016 32150 ft 378 kts 258°
2026-05-01 08:29 33.09983 -86.47997 32455 ft 379 kts 258°
2026-05-01 08:30 33.09116 -86.50969 32790 ft 382 kts 255°
2026-05-01 08:30 33.08006 -86.53842 33125 ft 387 kts 250°
2026-05-01 08:30 33.06566 -86.56609 33503 ft 392 kts 244°
2026-05-01 08:30 33.04843 -86.59156 33879 ft 399 kts 237°
2026-05-01 08:31 33.02829 -86.61429 33964 ft 408 kts 230°
2026-05-01 08:31 32.98053 -86.65091 33968 ft 408 kts 222°
2026-05-01 08:32 32.93147 -86.68513 33968 ft 409 kts 223°
2026-05-01 08:32 32.88301 -86.72085 33966 ft 408 kts 224°
2026-05-01 08:33 32.83559 -86.75704 33968 ft 406 kts 225°
2026-05-01 08:33 32.78826 -86.79382 33968 ft 408 kts 225°
2026-05-01 08:34 32.74082 -86.83076 33969 ft 408 kts 225°
2026-05-01 08:34 32.69378 -86.86735 33966 ft 405 kts 225°
2026-05-01 08:35 32.64635 -86.90429 33968 ft 406 kts 225°
2026-05-01 08:35 32.59899 -86.94116 33966 ft 408 kts 224°
2026-05-01 08:36 32.55193 -86.97759 33969 ft 405 kts 225°
2026-05-01 08:36 32.50444 -87.01440 33969 ft 405 kts 224°
2026-05-01 08:37 32.45701 -87.05109 33973 ft 408 kts 224°
2026-05-01 08:37 32.40959 -87.08769 33970 ft 405 kts 224°
2026-05-01 08:38 32.36209 -87.12435 33971 ft 409 kts 224°
2026-05-01 08:38 32.31451 -87.16103 33973 ft 412 kts 224°
2026-05-01 08:39 32.26647 -87.19804 33970 ft 411 kts 224°
2026-05-01 08:39 32.21886 -87.23458 33968 ft 407 kts 224°
2026-05-01 08:40 32.14723 -87.28957 33968 ft 412 kts 224°
2026-05-01 08:40 32.09926 -87.32629 33965 ft 410 kts 224°
2026-05-01 08:41 32.05125 -87.36297 33963 ft 411 kts 224°
2026-05-01 08:41 32.00339 -87.39952 33959 ft 412 kts 224°
2026-05-01 08:42 31.95518 -87.43628 33962 ft 411 kts 224°
2026-05-01 08:42 31.90744 -87.47267 33963 ft 411 kts 224°
2026-05-01 08:43 31.85924 -87.50942 33966 ft 413 kts 224°
2026-05-01 08:43 31.81123 -87.54590 33962 ft 409 kts 224°
2026-05-01 08:44 31.76357 -87.58203 33961 ft 409 kts 224°
2026-05-01 08:44 31.71587 -87.61826 33957 ft 411 kts 224°
2026-05-01 08:45 31.66787 -87.65466 33962 ft 409 kts 223°
2026-05-01 08:45 31.61976 -87.69102 33959 ft 411 kts 223°
2026-05-01 08:46 31.57187 -87.72722 33958 ft 408 kts 223°
2026-05-01 08:46 31.52406 -87.76337 33958 ft 411 kts 223°
2026-05-01 08:47 31.47586 -87.79967 33966 ft 411 kts 223°
2026-05-01 08:47 31.42785 -87.83579 33966 ft 409 kts 223°
2026-05-01 08:48 31.38002 -87.87175 33965 ft 411 kts 223°
2026-05-01 08:48 31.33164 -87.90816 33964 ft 413 kts 223°
2026-05-01 08:49 31.28337 -87.94432 33965 ft 412 kts 222°
2026-05-01 08:49 31.23553 -87.98009 33970 ft 410 kts 222°
2026-05-01 08:50 31.18759 -88.01598 33968 ft 410 kts 222°
2026-05-01 08:50 31.13965 -88.05185 33957 ft 412 kts 223°
2026-05-01 08:51 31.09132 -88.08794 33955 ft 413 kts 222°
2026-05-01 08:51 31.04267 -88.12416 33951 ft 414 kts 222°
2026-05-01 08:52 30.99421 -88.16017 33944 ft 411 kts 221°
2026-05-01 08:52 30.94601 -88.19600 33940 ft 413 kts 221°
2026-05-01 08:53 30.89756 -88.23202 33947 ft 412 kts 222°
2026-05-01 08:53 30.84908 -88.26802 33944 ft 414 kts 221°
2026-05-01 08:54 30.80053 -88.30395 33946 ft 415 kts 221°
2026-05-01 08:54 30.75272 -88.34113 33950 ft 409 kts 227°
2026-05-01 08:55 30.71493 -88.38804 33943 ft 391 kts 242°
2026-05-01 08:55 30.68809 -88.44199 33938 ft 388 kts 248°
2026-05-01 08:56 30.66386 -88.49761 33937 ft 388 kts 249°
2026-05-01 08:56 30.63952 -88.55379 33936 ft 389 kts 248°
2026-05-01 08:57 30.61518 -88.60924 33480 ft 380 kts 249°
2026-05-01 08:57 30.60333 -88.63600 32975 ft 376 kts 249°
2026-05-01 08:57 30.59137 -88.66296 32339 ft 375 kts 248°
2026-05-01 08:58 30.57956 -88.68960 31642 ft 375 kts 247°
2026-05-01 08:58 30.56761 -88.71662 30898 ft 376 kts 246°
2026-05-01 08:58 30.55581 -88.74326 30133 ft 378 kts 246°
2026-05-01 08:58 30.54365 -88.77065 29335 ft 380 kts 245°
2026-05-01 08:59 30.53164 -88.79762 28549 ft 383 kts 245°
2026-05-01 08:59 30.51946 -88.82494 28036 ft 388 kts 246°
2026-05-01 08:59 30.50670 -88.85353 27524 ft 401 kts 245°
2026-05-01 08:59 30.49400 -88.88194 26976 ft 401 kts 246°
2026-05-01 09:00 30.48120 -88.91050 26410 ft 396 kts 246°
2026-05-01 09:00 30.46874 -88.93829 25861 ft 391 kts 245°
2026-05-01 09:00 30.45616 -88.96633 25300 ft 387 kts 246°
2026-05-01 09:00 30.44395 -88.99352 24749 ft 383 kts 245°
2026-05-01 09:01 30.43168 -89.02087 24202 ft 379 kts 246°
2026-05-01 09:01 30.41970 -89.04758 23667 ft 376 kts 246°
2026-05-01 09:01 30.40761 -89.07449 23119 ft 372 kts 246°
2026-05-01 09:01 30.39646 -89.10089 22592 ft 367 kts 249°
2026-05-01 09:02 30.38625 -89.12791 22074 ft 364 kts 250°
2026-05-01 09:02 30.37674 -89.15450 21545 ft 361 kts 251°
2026-05-01 09:02 30.36724 -89.18139 21009 ft 358 kts 251°
2026-05-01 09:02 30.35791 -89.20763 20479 ft 355 kts 251°
2026-05-01 09:03 30.34848 -89.23388 19949 ft 351 kts 250°
2026-05-01 09:03 30.33905 -89.25985 19417 ft 348 kts 250°
2026-05-01 09:03 30.32977 -89.28522 18904 ft 344 kts 250°
2026-05-01 09:03 30.32046 -89.31059 18384 ft 341 kts 250°
2026-05-01 09:04 30.31134 -89.33541 17869 ft 337 kts 249°
2026-05-01 09:04 30.30220 -89.36025 17398 ft 332 kts 249°
2026-05-01 09:04 30.29323 -89.38457 16905 ft 328 kts 250°
2026-05-01 09:04 30.28441 -89.40843 16426 ft 324 kts 250°
2026-05-01 09:05 30.27558 -89.43233 15938 ft 320 kts 249°
2026-05-01 09:05 30.26696 -89.45561 15444 ft 316 kts 249°
2026-05-01 09:05 30.25837 -89.47881 14964 ft 317 kts 249°
2026-05-01 09:05 30.24943 -89.50297 14442 ft 334 kts 249°
2026-05-01 09:06 30.24021 -89.52779 13880 ft 336 kts 249°
2026-05-01 09:06 30.23109 -89.55228 13349 ft 333 kts 248°
2026-05-01 09:06 30.22191 -89.57674 12823 ft 329 kts 248°
2026-05-01 09:06 30.21282 -89.60096 12315 ft 327 kts 248°
2026-05-01 09:07 30.20391 -89.62471 11861 ft 323 kts 248°
2026-05-01 09:07 30.19516 -89.64802 11592 ft 313 kts 248°
2026-05-01 09:07 30.18656 -89.67074 11455 ft 300 kts 248°
2026-05-01 09:07 30.17845 -89.69220 11345 ft 287 kts 248°
2026-05-01 09:08 30.17061 -89.71309 11233 ft 275 kts 248°
2026-05-01 09:08 30.16380 -89.73312 11050 ft 267 kts 253°
2026-05-01 09:08 30.15900 -89.75363 11018 ft 267 kts 257°
2026-05-01 09:08 30.15470 -89.77520 10736 ft 275 kts 258°
2026-05-01 09:09 30.15273 -89.78544 10570 ft 272 kts 258°
2026-05-01 09:09 30.14890 -89.80560 10285 ft 260 kts 258°
2026-05-01 09:09 30.14511 -89.82568 10038 ft 252 kts 258°
2026-05-01 09:09 30.14146 -89.84523 9735 ft 249 kts 258°
2026-05-01 09:10 30.13689 -89.86422 9432 ft 246 kts 251°
2026-05-01 09:10 30.13077 -89.88265 9132 ft 244 kts 249°
2026-05-01 09:10 30.12439 -89.90051 8838 ft 241 kts 248°
2026-05-01 09:10 30.11802 -89.91821 8543 ft 239 kts 248°
2026-05-01 09:11 30.11170 -89.93580 8242 ft 238 kts 249°
2026-05-01 09:11 30.10550 -89.95347 7943 ft 238 kts 249°
2026-05-01 09:11 30.09922 -89.97109 7640 ft 238 kts 247°
2026-05-01 09:11 30.09299 -89.98895 7351 ft 237 kts 248°
2026-05-01 09:12 30.08694 -90.00635 7054 ft 236 kts 248°
2026-05-01 09:12 30.08079 -90.02388 6768 ft 234 kts 249°
2026-05-01 09:12 30.07473 -90.04108 6469 ft 233 kts 248°
2026-05-01 09:12 30.06861 -90.05849 6176 ft 232 kts 248°
2026-05-01 09:13 30.06267 -90.07561 5880 ft 232 kts 250°
2026-05-01 09:13 30.06021 -90.09404 5578 ft 232 kts 272°
2026-05-01 09:13 30.06284 -90.11231 5292 ft 234 kts 283°
2026-05-01 09:13 30.06728 -90.13032 4996 ft 235 kts 285°
2026-05-01 09:14 30.07190 -90.14858 4700 ft 236 kts 284°
2026-05-01 09:14 30.07641 -90.16677 4404 ft 237 kts 285°
2026-05-01 09:14 30.08094 -90.18501 4111 ft 237 kts 284°
2026-05-01 09:14 30.08543 -90.20315 3818 ft 237 kts 283°
2026-05-01 09:15 30.09003 -90.22156 3516 ft 237 kts 285°
2026-05-01 09:15 30.09454 -90.23987 3225 ft 237 kts 285°
2026-05-01 09:15 30.09903 -90.25796 2932 ft 238 kts 285°
2026-05-01 09:15 30.10361 -90.27670 2646 ft 241 kts 285°
2026-05-01 09:16 30.10791 -90.29524 2353 ft 241 kts 285°
2026-05-01 09:16 30.11205 -90.31388 2071 ft 241 kts 285°
2026-05-01 09:16 30.11600 -90.33234 1993 ft 236 kts 284°
2026-05-01 09:17 30.12360 -90.36854 2007 ft 221 kts 285°
2026-05-01 09:17 30.12716 -90.38565 1997 ft 218 kts 285°
2026-05-01 09:17 30.13436 -90.41997 1999 ft 220 kts 283°
2026-05-01 09:18 30.13438 -90.43736 1997 ft 217 kts 253°
2026-05-01 09:18 30.11483 -90.45805 2006 ft 192 kts 195°
2026-05-01 09:19 30.08949 -90.46452 1992 ft 179 kts 167°
2026-05-01 09:19 30.07766 -90.46071 1994 ft 176 kts 158°
2026-05-01 09:19 30.06596 -90.45633 1993 ft 177 kts 158°
2026-05-01 09:20 30.04404 -90.44446 1991 ft 173 kts 134°
2026-05-01 09:20 30.03096 -90.42203 1989 ft 167 kts 107°
2026-05-01 09:21 30.02438 -90.39625 1886 ft 157 kts 105°
2026-05-01 09:21 30.02157 -90.38477 1737 ft 149 kts 104°
2026-05-01 09:21 30.01617 -90.36232 1354 ft 146 kts 104°
2026-05-01 09:22 30.01072 -90.33969 987 ft 148 kts 102°
2026-05-01 09:22 30.00499 -90.31696 628 ft 149 kts 104°
2026-05-01 09:23 30.00225 -90.30547 458 ft 148 kts 102°
2026-05-01 09:23 29.99678 -90.28258 76 ft 147 kts 103°
2026-05-01 09:24 29.99248 -90.26450 11 ft 65 kts 105°
2026-05-01 09:24 29.99150 -90.26038 11 ft 49 kts 105°
2026-05-01 09:24 29.99082 -90.25671 11 ft 12 kts 60°
2026-05-01 09:25 29.99212 -90.25594 11 ft 7 kts 53°
2026-05-01 09:25 29.99205 -90.25399 11 ft 13 kts 95°
2026-05-01 09:26 29.99220 -90.25296 11 ft 14 kts 58°
2026-05-01 09:26 29.99402 -90.25235 11 ft 12 kts 355°
2026-05-01 09:26 29.99453 -90.25251 11 ft 6 kts 316°
2026-05-01 09:27 29.99458 -90.25330 11 ft 0 kts 262°